This is the latest recevied weather packets stored in our database for station/object YU7IBS-1. If no packets are shown the sender has not sent any weather packets the latest 10 day(s).
| Time | Temp. | Humidity | Pressure | Rain* | Wind** | Luminosity | Snow |
|---|---|---|---|---|---|---|---|
| 1787645657 | 29.44° C | 34% | 996.7 hPa | 0 mm | - | - | - |
| 1787645056 | 28.89° C | 34% | 996.5 hPa | 0 mm | - | - | - |
| 1787644456 | 28.33° C | 35% | 996.7 hPa | 0 mm | - | - | - |
| 1787643858 | 27.78° C | 35% | 996.5 hPa | 0 mm | - | - | - |
| 1787643258 | 27.22° C | 35% | 996.5 hPa | 0 mm | - | - | - |
| 1787642658 | 26.67° C | 35% | 996.7 hPa | 0 mm | - | - | - |
| 1787642058 | 25.56° C | 37% | 996.5 hPa | 0 mm | - | - | - |
| 1787641458 | 25.56° C | 37% | 996.5 hPa | 0 mm | - | - | - |
| 1787640856 | 26.11° C | 37% | 996.7 hPa | 0 mm | - | - | - |
| 1787640256 | 25.56° C | 37% | 996.5 hPa | 0 mm | - | - | - |
| 1787639656 | 25° C | 37% | 996.5 hPa | 0 mm | - | - | - |
| 1787639057 | 24.44° C | 39% | 996.7 hPa | 0 mm | - | - | - |
| 1787638457 | 23.89° C | 40% | 996.5 hPa | 0 mm | - | - | - |
| 1787637856 | 23.89° C | 41% | 996.4 hPa | 0 mm | - | - | - |
| 1787637257 | 23.33° C | 40% | 996.5 hPa | 0 mm | - | - | - |
| 1787636656 | 23.33° C | 40% | 996.5 hPa | 0 mm | - | - | - |
| 1787636057 | 22.78° C | 39% | 996.6 hPa | 0 mm | - | - | - |
| 1787635456 | 22.78° C | 40% | 996.6 hPa | 0 mm | - | - | - |
| 1787634856 | 22.22° C | 42% | 996.5 hPa | 0 mm | - | - | - |
| 1787634260 | 22.22° C | 43% | 996.5 hPa | 0 mm | - | - | - |
| 1787633656 | 21.67° C | 44% | 996.5 hPa | 0 mm | - | - | - |
| 1787633057 | 21.11° C | 44% | 996.5 hPa | 0 mm | - | - | - |
| 1787632456 | 21.11° C | 45% | 996.5 hPa | 0 mm | - | - | - |
| 1787631857 | 21.11° C | 46% | 996.6 hPa | 0 mm | - | - | - |
| 1787631256 | 21.11° C | 47% | 996.8 hPa | 0 mm | - | - | - |
* Rain latest hour (hover to see other rain measurements)
** Current wind speed in m/s (hover to see current wind gust speed)